Overview Statistics Trail Chart Weather Telemetry Raw packets
 

This is the latest recevied weather packets stored in our database for station/object VK4UCZ-13. If no packets are shown the sender has not sent any weather packets the latest 10 day(s).

<< 2 3 4 5 6 7 >>
Time Temp. Humidity Pressure Rain* Wind** Luminosity Snow
1788183219 15.56° C 91% 1019.8 hPa 0 mm - - -
1788182615 15.56° C 92% 1019.8 hPa 0 mm - - -
1788182015 15.56° C 93% 1020 hPa 0 mm - - -
1788181415 15.56° C 92% 1020.1 hPa 0 mm - - -
1788180815 15.56° C 91% 1020.1 hPa 0 mm - - -
1788180215 16.11° C 90% 1020 hPa 0 mm - - -
1788179615 16.67° C 89% 1020.2 hPa 0 mm - - -
1788179015 16.67° C 88% 1020.3 hPa 0 mm - - -
1788178415 17.22° C 87% 1020.1 hPa 0 mm - - -
1788177815 16.67° C 88% 1020.1 hPa 0 mm - - -
1788177215 16.67° C 90% 1020.3 hPa 0 mm - - -
1788176615 16.67° C 91% 1020.5 hPa 0 mm - - -
1788176015 16.11° C 93% 1020.4 hPa 0 mm - - -
1788175414 16.11° C 93% 1020.5 hPa 0 mm - - -
1788174815 15.56° C 93% 1020.4 hPa 0 mm - - -
1788174214 15.56° C 93% 1020.3 hPa 0 mm - - -
1788173615 15.56° C 93% 1020.4 hPa 0 mm - - -
1788173015 15.56° C 93% 1020.3 hPa 0 mm - - -
1788172415 15.56° C 93% 1020.4 hPa 0 mm - - -
1788171814 16.11° C 91% 1020.1 hPa 0 mm - - -
1788171215 16.11° C 91% 1020 hPa 0 mm - - -
1788170614 16.11° C 91% 1019.9 hPa 0 mm - - -
1788170015 16.11° C 91% 1020 hPa 0 mm - - -
1788169414 16.11° C 90% 1019.8 hPa 0 mm - - -
1788168815 16.11° C 90% 1019.8 hPa 0 mm - - -

* Rain latest hour (hover to see other rain measurements)
** Current wind speed in m/s (hover to see current wind gust speed)